Theta_e
334 334 342 335 333 334 335 340 342 343 344 342 340 337 334 334 333 333 332 331 333 338 337 331 336 341 342 339 340 337 341 338 339 339 338 337 338 332 333 330 328 326 322
333 335 335 334 336 334 334 335 335 334 342 342 341 339 335 334 334 333 332 333 333 333 336 337 337 337 336 331 333 334 337 335 336 335 335 338 340 335 333 339 342 331 327
333 334 336 337 341 333 332 333 335 333 334 337 334 334 335 335 334 333 335 335 335 335 340 332 330 334 334 341 334 335 336 334 335 336 336 346 344 336 333 340 339 339 332
332 333 333 335 341 341 338 335 341 336 334 334 335 336 337 337 336 336 337 338 341 339 341 340 336 330 339 340 335 335 336 336 338 340 342 345 345 334 340 336 336 337 337
330 333 332 334 341 339 339 340 335 339 340 335 333 334 343 337 338 341 341 340 339 341 336 339 341 331 329 332 334 337 340 331 334 337 339 342 342 336 338 337 337 335 335
330 332 333 332 339 343 334 337 340 335 335 332 330 334 334 335 335 338 342 340 338 341 340 342 344 336 341 341 336 333 337 334 335 333 339 339 339 338 330 327 336 329 326
334 332 334 334 340 340 338 327 333 335 330 337 339 339 337 336 340 341 332 331 336 338 337 338 339 336 337 341 342 339 336 340 343 339 335 333 333 331 334 340 328 330 338
335 340 342 341 340 337 330 330 343 338 332 336 329 333 336 336 329 329 328 325 330 337 334 331 338 334 337 340 341 342 341 341 341 342 341 338 333 335 335 340 333 333 332
338 344 340 335 338 331 336 335 332 330 330 331 331 333 334 334 335 331 332 331 329 324 339 340 339 336 334 338 341 342 341 340 342 339 337 337 334 336 336 339 337 336 334
340 340 336 333 333 329 335 338 332 330 341 335 330 329 328 329 329 327 328 333 338 332 333 329 333 332 329 333 336 340 341 340 340 342 340 338 337 333 339 337 339 334 332
340 340 340 336 333 332 336 333 330 328 328 328 328 330 331 333 335 337 338 338 337 336 337 333 333 327 330 329 329 330 333 340 339 338 340 338 339 333 334 336 339 338 333
333 332 336 338 337 330 331 332 341 331 329 331 330 331 333 337 340 339 337 340 338 336 334 335 336 335 335 339 333 334 333 337 335 337 336 338 338 341 336 337 332 334 340
330 329 328 333 336 333 329 332 334 330 329 330 333 331 333 341 342 341 342 343 343 344 343 339 338 340 343 338 337 331 334 332 336 340 338 336 339 341 341 340 334 328 335
329 329 328 329 334 335 331 330 331 329 331 340 340 343 341 340 342 345 345 344 345 345 345 345 343 339 338 335 333 334 337 335 335 336 334 333 339 341 340 340 339 330 327
334 328 328 329 330 333 331 329 331 332 336 340 343 344 345 346 346 346 347 346 346 346 344 344 345 343 340 340 340 338 335 334 341 343 341 333 332 338 340 337 340 339 334
337 329 327 328 328 329 328 334 336 336 340 343 345 346 347 346 345 346 346 346 347 346 341 342 344 346 344 342 342 342 342 343 342 340 341 341 331 331 335 338 339 340 338
339 336 329 328 328 327 328 341 341 340 342 345 345 344 344 345 344 344 345 343 342 342 346 341 343 346 345 346 346 345 345 344 344 343 341 338 341 337 337 341 336 341 339
341 341 332 334 337 337 337 340 344 344 344 345 346 345 343 345 345 343 345 341 343 343 344 345 345 346 346 344 345 345 343 341 344 345 343 341 340 338 342 341 338 339 342
342 342 341 341 341 343 344 342 343 345 346 347 347 346 346 345 345 346 343 344 342 345 345 346 344 343 344 344 343 344 344 345 344 344 344 344 342 342 343 342 341 337 338
344 342 342 342 342 343 343 344 344 345 346 347 347 346 344 345 345 345 346 342 341 345 344 343 342 342 343 346 344 342 341 341 343 345 345 345 345 344 343 342 343 343 342
342 345 342 342 342 342 343 344 344 345 346 347 348 345 345 345 346 345 345 344 341 342 341 339 338 340 342 344 344 344 345 342 344 345 346 346 345 346 345 345 344 345 347
339 339 345 344 343 342 343 344 344 345 346 348 347 346 346 346 345 346 344 345 339 341 340 338 338 342 341 342 344 345 347 347 348 346 346 346 346 347 347 345 344 343 343
342 340 340 342 344 342 342 344 345 346 346 349 348 348 348 347 345 343 343 342 341 337 332 334 336 338 341 342 344 345 346 346 345 347 346 345 346 346 347 347 347 345 343
343 340 340 342 343 342 344 344 345 345 345 346 347 347 347 346 346 344 343 338 328 327 330 334 336 337 340 344 344 343 344 345 346 347 346 346 346 346 346 346 345 346 346
343 341 340 341 342 345 345 345 345 346 345 346 348 348 347 346 344 342 333 323 324 324 329 334 338 337 336 333 339 343 343 343 344 346 348 348 346 346 345 346 345 343 344
344 342 341 341 342 346 346 346 345 347 345 346 349 347 348 346 340 328 323 324 324 324 329 336 334 329 323 325 331 340 342 343 344 344 345 347 348 348 347 346 345 345 344
Wind_Speed
22 21 20 19 17 16 16 17 17 17 17 17 16 15 14 12 12 11 9 8 7 6 7 7 4 2 3 3 5 6 7 8 9 10 10 10 10 9 9 10 11 11 14
26 22 20 19 16 15 14 15 15 15 15 15 14 13 12 11 9 10 10 8 6 5 5 3 3 2 2 3 4 6 7 8 10 9 10 11 9 8 9 10 11 12 14
25 22 20 19 16 16 15 15 15 15 15 14 13 12 11 10 9 9 8 7 6 6 6 4 4 5 6 6 7 8 8 8 9 9 10 8 8 7 8 8 9 9 11
24 22 20 19 17 16 14 15 16 15 14 13 12 11 10 10 9 8 7 6 7 6 7 6 5 6 6 8 7 8 8 7 7 7 8 7 8 6 7 7 7 8 9
23 22 20 19 18 15 15 14 15 15 12 12 10 9 9 9 9 9 8 6 7 5 5 5 4 5 6 6 6 8 7 6 7 5 4 6 7 3 7 8 8 8 8
23 21 19 19 18 14 13 14 13 13 11 9 8 8 8 7 8 8 6 5 6 5 5 4 3 4 6 5 6 8 5 6 6 4 5 4 5 4 5 8 7 7 9
23 20 18 18 17 15 12 13 12 10 10 9 8 8 8 7 7 7 5 4 4 4 3 3 3 3 4 4 5 4 3 3 2 2 3 3 3 4 5 6 5 8 9
21 20 19 17 17 14 13 13 12 9 10 9 7 7 7 6 5 4 4 3 4 4 2 2 3 3 5 4 4 3 2 0 1 3 2 2 3 4 4 6 4 6 7
20 18 18 18 17 15 12 11 10 9 8 7 6 5 4 4 3 3 2 1 1 3 4 3 3 5 6 6 5 5 3 2 3 4 2 3 3 4 6 6 6 6 7
20 18 17 17 16 14 13 11 9 8 6 5 5 4 4 3 3 2 2 1 2 3 3 6 7 7 7 8 8 8 7 6 2 6 5 5 3 3 5 5 6 5 7
21 19 18 17 17 15 13 11 9 8 6 5 5 4 3 2 2 2 2 1 2 2 3 6 7 8 10 10 9 9 10 10 9 8 8 8 6 5 6 6 6 8 7
22 20 18 17 16 15 13 12 10 8 7 6 5 3 2 2 2 3 3 3 4 5 5 6 9 10 10 10 12 13 13 12 12 12 12 11 10 10 8 7 8 9 9
19 20 19 17 16 16 14 12 11 9 7 4 3 2 2 2 3 5 5 6 8 8 7 9 10 11 13 13 13 15 15 18 16 14 14 15 14 12 12 11 9 10 11
20 18 18 18 17 16 15 13 11 9 6 4 3 1 2 5 5 7 8 9 11 11 11 13 13 14 15 18 18 17 18 19 20 20 20 19 19 16 14 14 13 10 12
17 18 18 17 18 16 15 14 12 9 7 4 3 3 5 6 7 9 9 11 12 12 14 16 16 16 17 16 17 19 20 24 21 22 25 24 22 21 19 17 19 17 14
16 15 16 15 15 16 16 14 10 10 8 5 4 5 7 8 10 12 13 13 14 14 15 16 15 16 18 18 17 17 19 21 20 19 20 22 24 23 23 23 21 19 18
12 14 16 14 15 16 16 14 11 9 8 6 5 5 7 8 10 13 11 11 12 14 17 16 13 15 11 12 14 16 18 19 23 22 22 22 21 25 26 23 22 21 21
12 6 14 14 15 15 14 14 12 10 9 8 8 7 7 8 9 9 12 13 15 16 18 17 13 11 11 11 14 15 18 20 22 24 25 25 26 28 28 29 27 24 23
19 12 14 18 16 14 13 13 13 12 13 13 14 13 11 11 11 10 10 12 14 11 4 4 6 6 8 12 15 16 19 23 24 25 25 25 28 28 28 29 27 28 27
25 21 13 8 13 17 17 15 15 14 14 15 13 12 10 11 10 9 10 11 9 5 3 3 5 9 10 10 12 15 16 19 23 26 28 26 26 28 28 28 28 30 30
25 30 29 21 5 14 21 20 18 16 11 10 8 5 5 7 8 7 9 11 3 5 5 7 8 8 10 11 15 15 15 12 13 18 21 27 30 29 26 27 28 25 24
24 26 32 28 18 10 19 22 19 14 11 11 7 6 8 11 8 8 9 7 6 9 10 10 11 10 10 9 11 13 9 11 8 16 16 15 22 28 29 27 27 27 28
24 22 22 25 23 15 13 19 20 15 11 9 8 8 10 9 7 8 8 8 9 11 11 10 9 8 10 11 10 9 6 6 25 18 10 11 11 20 26 25 28 28 28
21 20 18 19 21 15 13 16 18 15 11 9 7 4 5 5 6 8 8 10 10 8 7 7 7 8 10 10 11 10 11 14 13 10 8 8 11 9 13 15 20 24 27
21 19 20 21 18 13 13 15 17 15 10 9 8 6 5 5 5 5 7 6 7 7 6 5 5 7 9 10 11 13 14 13 11 16 15 13 10 11 11 12 9 14 18
22 22 21 22 20 14 14 13 16 14 10 9 6 6 4 4 2 2 3 6 7 6 4 4 7 9 9 8 8 10 12 13 15 15 14 14 13 12 16 22 13 9 11
Wind_Direction
157 146 143 140 131 126 124 126 128 131 134 134 131 130 129 136 137 142 147 144 138 131 137 150 157 149 133 133 116 91 99 101 102 114 117 117 115 113 118 116 111 113 119
150 147 143 141 136 129 132 132 131 133 137 139 136 136 137 134 142 145 142 142 142 140 145 166 164 155 150 154 129 116 110 102 107 111 118 118 120 113 114 112 108 114 122
151 147 145 144 136 127 131 133 136 140 139 141 143 138 134 135 133 128 127 133 130 120 124 105 110 112 102 100 112 115 113 116 119 123 120 118 120 98 116 122 126 118 124
155 150 148 146 141 138 133 132 135 133 139 144 140 139 144 138 129 131 135 128 117 116 123 102 98 124 117 108 107 111 106 113 116 124 123 132 129 101 134 127 130 131 132
157 153 151 150 146 144 141 138 144 143 146 142 138 137 136 143 134 126 122 124 124 119 117 113 111 106 123 130 133 121 119 116 119 116 120 131 123 123 136 145 137 148 139
158 157 155 153 149 152 152 153 155 156 150 143 137 135 130 136 129 128 130 140 125 122 130 128 135 130 122 112 116 132 114 108 105 105 121 123 135 157 137 144 148 144 141
160 160 157 156 153 153 157 156 149 143 142 140 138 139 130 130 133 131 130 141 139 146 154 164 159 160 162 135 124 129 133 132 126 106 113 144 147 145 138 142 152 145 142
162 158 155 164 154 164 153 149 145 157 155 155 154 145 141 141 129 135 139 142 165 178 166 194 182 185 184 168 158 141 155 306 240 221 204 189 182 164 160 164 156 158 158
169 162 162 164 167 165 161 155 158 155 146 143 149 149 145 158 159 145 139 129 123 201 202 219 219 223 219 209 208 216 231 281 253 201 243 214 200 187 177 179 185 181 177
174 172 172 171 173 168 168 168 167 160 147 155 162 160 169 182 195 171 158 8 315 264 248 243 241 238 228 230 231 239 248 254 267 241 271 230 229 222 209 209 207 205 194
179 180 183 183 180 176 175 172 174 173 171 179 179 173 175 165 236 228 207 244 299 332 271 263 264 254 243 238 240 249 261 257 255 253 253 253 247 234 220 229 222 220 202
182 184 190 194 187 186 185 181 184 185 187 192 189 189 187 210 276 284 264 281 285 291 294 282 268 260 259 250 250 256 261 264 264 257 253 256 246 243 235 233 235 227 217
184 187 191 197 193 193 192 192 195 197 201 203 198 196 232 250 318 297 296 308 305 306 304 294 283 264 249 251 249 254 257 263 264 263 255 248 249 253 246 247 243 232 223
190 194 193 194 196 197 198 200 202 198 181 171 156 115 266 286 301 325 318 308 303 307 309 299 289 273 262 250 249 250 252 263 266 266 261 250 246 250 250 246 249 241 232
191 195 197 196 194 197 200 205 209 201 189 201 245 279 296 303 309 306 314 302 302 310 315 315 306 271 260 257 254 255 254 259 262 265 264 254 249 247 247 253 246 244 240
192 195 196 196 196 198 195 203 211 204 199 217 265 285 279 288 301 305 303 305 304 289 297 301 303 311 257 253 257 260 262 260 268 261 266 253 248 251 247 250 247 243 239
195 201 198 197 193 198 197 201 208 215 228 236 256 275 290 305 308 314 306 312 310 296 284 285 290 305 273 265 268 267 269 268 264 263 263 253 249 248 249 254 245 243 239
194 172 198 197 197 194 198 207 214 224 240 252 261 264 270 295 307 303 314 314 313 304 285 276 277 284 286 285 284 272 264 267 261 256 254 252 251 250 252 250 245 241 242
196 192 182 207 207 209 203 214 223 235 247 262 266 266 270 283 294 288 310 321 328 329 313 258 287 305 306 282 284 277 271 269 268 260 257 252 250 253 249 249 247 241 245
217 218 210 193 219 224 222 223 231 242 252 267 281 276 262 281 286 285 308 324 336 357 24 6 319 301 306 293 295 298 288 278 271 265 261 257 252 250 248 250 249 243 244
238 224 230 227 243 227 223 227 233 244 261 276 286 263 246 262 278 289 311 327 331 9 334 325 323 305 303 297 306 311 304 312 300 284 264 256 250 249 250 245 248 242 243
240 238 232 235 236 244 229 228 237 252 260 277 270 260 259 259 275 293 315 318 294 317 317 308 305 307 307 307 306 313 319 315 300 305 275 270 256 245 245 246 248 248 246
242 239 236 232 228 241 237 232 233 242 258 264 262 276 246 242 264 293 309 312 305 313 319 318 320 320 319 322 324 306 308 291 322 324 301 269 274 244 242 246 249 249 251
235 226 214 214 221 230 232 224 224 233 253 250 246 265 239 232 253 289 299 307 314 326 334 340 337 331 329 327 333 343 319 311 322 314 305 302 269 257 236 244 249 250 249
226 220 216 215 216 218 217 220 224 230 240 251 244 239 215 241 256 283 314 335 347 351 355 4 359 345 340 339 338 332 333 330 335 340 312 319 295 264 252 281 263 249 241
222 221 217 213 213 219 224 230 220 222 236 251 223 206 202 222 267 328 8 7 6 14 28 17 358 346 339 333 332 338 340 336 341 345 342 342 337 302 274 252 242 251 245